Regional Weather Roundup
Issued by NWS

Home | Current Version | Previous Version | Graphics & Text | Print | Product List | Glossary On
Versions: 1 2 3 4 5 6 7 8 9 10 11 12 13 14 15 16 17 18 19 20 21 22 23 24 25 26 27 28 29 30 31 32 33 34 35 36 37 38 39 40 41 42 43 44 45 46 47 48 49 50
294
ASUS44 KLIX 301710
RWRLA
LOUISIANA WEATHER ROUNDUP
NATIONAL WEATHER SERVICE NEW ORLEANS LA
1200 PM CDT THU OCT 30 2014

NOTE: "FAIR" INDICATES FEW OR NO CLOUDS BELOW 12,000 FEET WITH NO
      SIGNIFICANT WEATHER AND/OR OBSTRUCTIONS TO VISIBILITY.
      SKY/WX - SKY CONDITION AND SIGNIFICANT WEATHER.
      TMP - AIR TEMPERATURE.    DP   - DEWPOINT TEMPERATURE.
      RH  - RELATIVE HUMIDITY.  PRES - PRESSURE.
      HX  - HEAT INDEX.         WCI  - WIND CHILL INDEX.

*  THESE STATIONS ARE NOT NWS OR FAA STATIONS AND ARE NOT UNDER
   NWS QUALITY CONTROL.

LAZ040-048-061>063-065-066-069-301800-
SOUTHEAST LOUISIANA

CITY           SKY/WX    TMP DP  RH WIND       PRES   REMARKS
N.O. AUDUBON   NOT AVBL
N.O. INTL ARPT SUNNY     71  46  40 NE14      30.11F
N.O. LAKEFRONT SUNNY     70  46  42 NE13      30.12F
N.O. DOWNTOWN* FAIR      70  41  35 NE5       30.11F
SLIDELL        SUNNY     71  42  35 N16       30.11F
BATON ROUGE    SUNNY     70  41  34 NE13G24   30.13F
BOOTHVILLE     SUNNY     71  57  61 NE10G21   30.09S
BELLE CHASSE   SUNNY     72  44  36 NE12      30.10F
BOGALUSA*        N/A     72  37  28 E7        30.14F
NEW ROADS*     FAIR      69  43  37 E8        30.14F
GONZALES*      FAIR      71  44  38 NE5       30.12F
HAMMOND*       SUNNY     72  37  28 N7        30.14F
HOUMA*         SUNNY     73  46  38 NE12      30.10F
PORT FOURCHON* SUNNY     72  57  60 NE15      30.12S

$$

LAZ041-044-053-054-301800-
SOUTHWEST LOUISIANA

CITY           SKY/WX    TMP DP  RH WIND       PRES   REMARKS
LAKE CHARLES   SUNNY     71  48  43 VRB7      30.14F
LAFAYETTE      SUNNY     71  44  37 NE9       30.13F
PATTERSON      SUNNY     72  48  43 N12G17    30.14S
SALT POINT       N/A     73  52  47 VRB7      30.10F
NEW IBERIA     SUNNY     71  46  40 E12       30.13F
CHENAULT AIRPK NOT AVBL

$$

LAZ027-028-301800-
CENTRAL LOUISIANA

CITY           SKY/WX    TMP DP  RH WIND       PRES   REMARKS
FORT POLK      SUNNY     69  42  36 SE8       30.15F
ALEXANDRIA INT SUNNY     70  41  34 E10       30.14F
ALEXANDRIA     SUNNY     69  45  41 E8        30.16F

$$

LAZ001-002-301800-
NORTHWEST LOUISIANA

CITY           SKY/WX    TMP DP  RH WIND       PRES   REMARKS
SHREVEPORT     SUNNY     68  46  45 SE6       30.16F
BARKSDALE AFB  SUNNY     69  44  41 S7        30.17F
DTN SHREVEPORT SUNNY     67  45  45 VRB3      30.17F

$$

LAZ014-016-301800-
NORTHEAST LOUISIANA

CITY           SKY/WX    TMP DP  RH WIND       PRES   REMARKS
MONROE         SUNNY     68  45  43 E5        30.17F
TALLULAH       SUNNY     68  43  40 CALM      30.16F

$$




USA.gov is the U.S. government's official web portal to all federal, state and local government web resources and services.